Location: Baumgartsau
(48.4586°N, 14.0864°E)
Time: 22:41:18
(UTC+00:00)

Abrixas rocket - Pass Details

Date: 09 April 2020
Orbit: 345 x 352 km, 48.4° (Epoch: 26 May)

Event Time Altitude Azimuth Distance (km) Brightness Sun altitude
Rises 18:23:15 0° 279° (W) 2,159 8.0 -6.7°
Reaches altitude 10° 18:25:16 10° 277° (W) 1,317 6.3 -7.0°
Maximum altitude 18:28:12 66° 194° (SSW) 388 2.0 -7.4°
Enters shadow 18:30:59 11° 112° (ESE) 1,256 4.0 -7.9°
